Change the Weather History Date:

Saturday, November 3, 2012

  Actual Average Record
Temperature  
Mean Temperature 60 °F -  
Max Temperature 65 °F 63 °F 85 °F (1950)
Min Temperature 55 °F 47 °F 28 °F (1935)
Degree Days  
Heating Degree Days 5    
Growing Degree Days 10 (Base 50)    
Moisture  
Dew Point 58 °F    
Average Humidity 96    
Maximum Humidity 100    
Minimum Humidity 80    
Precipitation  
Precipitation 0.20 in - - ()
Sea Level Pressure  
Sea Level Pressure 30.15 in    
Wind  
Wind Speed 5 mph (SE)    
Max Wind Speed 9 mph    
Max Gust Speed -    
Visibility 6 miles    
Events Rain    
Averages and records for this station are not official NWS values.
T = Trace of Precipitation, MM = Missing Value Source: NWS Daily Summary

Daily Weather History Graph

Daily Weather History Graph

Search for Another Location

Airport or City:

Trip Planner

Search our weather history database for the weather conditions in past years. The results will help you decide how hot, cold, wet, or windy it might be!

Date:

Astronomy

Nov. 03, 2012 Rise Set
Actual Time 7:53 AM PDT 6:07 PM PDT
Civil Twilight 7:23 AM PDT 6:36 PM PDT
Nautical Twilight 6:50 AM PDT 7:10 PM PDT
Astronomical Twilight 6:18 AM PDT 7:42 PM PDT
Moon 9:52 PM PDT (11/3) 12:03 PM PDT (11/3)
Length of Visible Light 11h 13m
Length of Day
10h 14m
Waning Gibbous, 79% of the Moon is Illuminated
Nov 3
Waning Gibbous
Nov 6
Last Quarter
Nov 13
New
Nov 20
First Quarter
Nov 28
Full

Hourly Weather History & Observations

Time (PDT) Temp. Dew Point Humidity Pressure Visibility Wind Dir Wind Speed Gust Speed Precip Events Conditions
12:56 AM 55.9 °F 55.9 °F 100% 30.06 in 5.0 mi SE 5.8 mph - N/A   Overcast
1:56 AM 55.9 °F 55.9 °F 100% 30.07 in 10.0 mi Variable 6.9 mph - N/A   Overcast
2:21 AM 55.4 °F 55.4 °F 100% 30.07 in 10.0 mi SE 6.9 mph - N/A   Overcast
2:41 AM 55.4 °F 55.4 °F 100% 30.08 in 10.0 mi SE 9.2 mph - N/A   Overcast
2:56 AM 56.8 °F 56.8 °F 100% 30.08 in 10.0 mi SE 4.6 mph - N/A   Overcast
3:41 AM 57.2 °F 57.2 °F 100% 30.09 in 2.5 mi Variable 5.8 mph - 0.00 in Rain Light Rain
3:47 AM 57.2 °F 57.2 °F 100% 30.09 in 1.8 mi Variable 4.6 mph - 0.01 in Rain Light Rain
3:56 AM 56.8 °F 56.8 °F 100% 30.09 in 1.2 mi South 5.8 mph - 0.03 in Rain Light Rain
4:09 AM 55.4 °F 55.4 °F 100% 30.10 in 1.2 mi Variable 4.6 mph - 0.00 in Rain Light Rain
4:16 AM 55.4 °F - N/A% 30.10 in 1.8 mi South 4.6 mph - 0.01 in Rain Light Rain
4:31 AM 55.4 °F - N/A% 30.10 in 1.0 mi Variable 5.8 mph - 0.02 in Rain Light Rain
4:56 AM 55.9 °F - N/A% 30.12 in 1.0 mi Calm Calm - 0.05 in Rain Light Rain
5:09 AM 55.4 °F - N/A% 30.12 in 1.2 mi Variable 3.5 mph - 0.00 in Rain Light Rain
5:26 AM 55.4 °F - N/A% 30.12 in 1.0 mi Calm Calm - 0.01 in Rain Light Rain
5:56 AM 55.9 °F - N/A% 30.14 in 1.0 mi Calm Calm - 0.05 in Rain Light Rain
6:37 AM 55.4 °F - N/A% 30.14 in 1.2 mi Calm Calm - 0.05 in Rain Light Rain
6:44 AM 55.4 °F - N/A% 30.14 in 1.5 mi Calm Calm - 0.06 in Rain Light Rain
6:56 AM 55.9 °F - N/A% 30.15 in 1.8 mi Variable 3.5 mph - 0.06 in Rain Light Rain
7:15 AM 55.4 °F - N/A% 30.14 in 2.0 mi Variable 5.8 mph - 0.00 in   Overcast
7:18 AM 55.4 °F - N/A% 30.14 in 1.8 mi SE 4.6 mph - 0.00 in   Overcast
7:46 AM 55.4 °F - N/A% 30.14 in 3.0 mi SE 4.6 mph - 0.01 in Rain Light Rain
7:56 AM 55.9 °F - N/A% 30.15 in 4.0 mi Variable 4.6 mph - 0.01 in   Haze
8:28 AM 55.4 °F - N/A% 30.15 in 8.0 mi Variable 5.8 mph - N/A   Overcast
8:45 AM 55.4 °F - N/A% 30.16 in 7.0 mi Variable 3.5 mph - N/A   Overcast
8:56 AM 55.9 °F - N/A% 30.17 in 1.5 mi Variable 3.5 mph - N/A   Overcast
9:00 AM 55.4 °F - N/A% 30.17 in 2.0 mi Variable 4.6 mph - N/A   Overcast
9:08 AM 57.2 °F - N/A% 30.16 in 10.0 mi Variable 4.6 mph - N/A   Overcast
9:21 AM 57.2 °F - N/A% 30.17 in 10.0 mi Variable 3.5 mph - N/A   Overcast
9:56 AM 57.9 °F - N/A% 30.17 in 10.0 mi Variable 3.5 mph - N/A   Overcast
10:27 AM 57.2 °F - N/A% 30.17 in 10.0 mi Variable 3.5 mph - N/A   Overcast
10:56 AM 59.0 °F - N/A% 30.17 in 10.0 mi Variable 4.6 mph - N/A   Mostly Cloudy
11:56 AM 61.0 °F 61.0 °F 100% 30.19 in 10.0 mi Calm Calm - N/A   Partly Cloudy
12:56 PM 63.0 °F 61.9 °F 96% 30.16 in 10.0 mi SE 6.9 mph - N/A   Partly Cloudy
1:56 PM 65.8 °F 61.0 °F 84% 30.17 in 10.0 mi SSW 4.6 mph - N/A   Mostly Cloudy
2:56 PM 63.9 °F 59.0 °F 84% 30.18 in 10.0 mi West 4.6 mph - N/A   Partly Cloudy
3:56 PM 63.0 °F 56.8 °F 80% 30.19 in 10.0 mi Calm Calm - N/A   Mostly Cloudy
4:56 PM 61.9 °F 56.8 °F 84% 30.21 in 10.0 mi WNW 3.5 mph - N/A   Overcast
5:09 PM 62.6 °F 57.2 °F 82% 30.20 in 10.0 mi Calm Calm - N/A   Mostly Cloudy
5:56 PM 59.0 °F 59.0 °F 100% 30.19 in 10.0 mi Calm Calm - N/A   Mostly Cloudy
6:56 PM 57.9 °F 57.9 °F 100% 30.20 in 10.0 mi Variable 3.5 mph - N/A   Clear
7:56 PM 57.9 °F 57.9 °F 100% 30.20 in 10.0 mi SE 4.6 mph - N/A   Clear
8:56 PM 57.9 °F 57.9 °F 100% 30.20 in 10.0 mi East 4.6 mph - N/A   Partly Cloudy
9:56 PM 57.9 °F 57.9 °F 100% 30.21 in 10.0 mi East 4.6 mph - N/A   Overcast
10:56 PM 56.8 °F 56.8 °F 100% 30.21 in 10.0 mi Variable 4.6 mph - N/A   Scattered Clouds
11:56 PM 56.8 °F - N/A% 30.22 in 10.0 mi ESE 3.5 mph - N/A   Mostly Cloudy